User: anonymous   Login
Location: The Jewett Observatory
(46.7288°N, 117.1525°W)
Time: 03:18:10
(UTC-07:00)
Language:

Cosmos 1633 - Orbit

View from above orbital plane
View from above orbital plane
View from above satellite
View from above satellite

Ground track
Ground track

The orbit data is extracted from the following two-line orbital elements,

1 15592U 85020A   15084.97985368  .00009959  00000-0  42351-3 0  9990
2 15592 082.5402 052.3791 0016439 159.4579 262.0119 15.22766456640101
Epoch (UTC): 25 March 2015 23:30:59
Eccentricity: 0.0016439
inclination: 82.5402°
perigee height: 486 km
apogee height: 509 km
right ascension of ascending node: 52.3791°
argument of perigee: 159.4579°
revolutions per day: 15.22766456
mean anomaly at epoch: 262.0119°
orbit number at epoch: 64010

The dashed part of the orbit path shows where the satellite is in the earth's shadow,  

DLR